User: anonymous   Login
Location: Hepcat Sky Observatory
(29.9800°N, 95.6500°W)
Time: 22:04:04
(UTC-05:00)
Language:

Cosmos 2151 Rocket - Orbit

View from above orbital plane
View from above orbital plane
View from above satellite
View from above satellite

Ground track
Ground track

The orbit data is extracted from the following two-line orbital elements,

1 21423U 91042B   14295.10592206  .00000612  00000-0  79088-4 0  8392
2 21423 082.4924 146.8503 0018085 179.4965 336.2520 14.79278454259292
Epoch (UTC): 22 October 2014 02:32:31
Eccentricity: 0.0018085
inclination: 82.4924°
perigee height: 619 km
apogee height: 644 km
right ascension of ascending node: 146.8503°
argument of perigee: 179.4965°
revolutions per day: 14.79278454
mean anomaly at epoch: 336.2520°
orbit number at epoch: 25929

The dashed part of the orbit path shows where the satellite is in the earth's shadow,  

DLR